Location: Lake Sonoma
(38.7200°N, 123.0564°W)
Time: 14:40:42
(UTC-08:00)

Amateur Radio Satellites - All Passes

Search period start: 27 February 2015 14:10
Search period end: 28 February 2015 14:10
Location: Lake Sonoma, 38.7200°N, 123.0564°W

Satellite Date Start Highest point End Downlink Frequencies (MHz)
Time Altitude Azimuth
JAS-2 27 Feb 14:16:35 14:17:57 11° 57° (ENE) 14:19:43 435.910
KKS-1 27 Feb 14:18:46 14:22:35 28° 95° (E) 14:26:26 437.445
STARS 27 Feb 14:33:32 14:37:11 26° 95° (E) 14:40:54 437.465
Gurwin Techsat 1B 27 Feb 14:33:49 14:38:54 45° 262° (W) 14:43:59 435.225
SWISSCUBE 27 Feb 14:37:22 14:41:40 32° 290° (WNW) 14:45:53 437.505
YUBILEINY 27 Feb 14:38:32 14:40:29 11° 77° (ENE) 14:43:15 435.215
BEESAT 27 Feb 14:46:50 14:50:57 28° 291° (WNW) 14:54:59 436.000
ITUPSAT 1 27 Feb 15:12:44 15:15:53 17° 295° (WNW) 15:18:52 437.325
HORYU 2 27 Feb 15:17:17 15:21:37 52° 260° (W) 15:25:57 437.375
AO-7 27 Feb 15:27:05 15:35:28 90° 73° (ENE) 15:43:52 29.400- 29.500
ITAMSAT 1 27 Feb 15:27:15 15:28:13 10° 273° (W) 15:28:48 435.822/435.867
KKS-1 27 Feb 15:55:31 15:59:09 25° 291° (WNW) 16:02:42 437.445
JAS-2 27 Feb 15:56:45 16:02:03 85° 77° (ENE) 16:07:59 435.910
ISS 27 Feb 16:02:35 16:05:24 27° 29° (NNE) 16:08:15 145.825
M-CUBED/EXP-1 PRIME 27 Feb 16:06:12 16:09:51 29° 102° (ESE) 16:13:47 437.505
STARS 27 Feb 16:09:57 16:13:38 26° 291° (WNW) 16:17:12 437.465
AUBIESAT-1 27 Feb 16:11:10 16:14:50 29° 102° (ESE) 16:18:48 437.475
YUBILEINY 27 Feb 16:27:18 16:35:55 71° 94° (E) 16:44:40 435.215
MOZHAYETS 4 27 Feb 16:41:01 16:45:29 48° 98° (E) 16:49:59
Cubesat XI-IV 27 Feb 16:43:41 16:47:56 25° 67° (ENE) 16:52:20 437.490
BEESAT 3 27 Feb 16:50:24 16:51:18 11° 109° (ESE) 16:52:28 437.485
CUTE-I 27 Feb 16:53:20 16:57:55 30° 68° (ENE) 17:02:35 437.470
BEESAT 2 27 Feb 17:10:20 17:12:51 16° 111° (ESE) 17:15:32 435.950
AO-7 27 Feb 17:24:12 17:29:28 17° 271° (W) 17:34:10 29.400- 29.500
PRISM 27 Feb 17:31:34 17:32:03 10° 89° (E) 17:32:49 437.425
ISS 27 Feb 17:38:54 17:41:51 32° 225° (SW) 17:44:48 145.825
M-CUBED/EXP-1 PRIME 27 Feb 17:41:16 17:44:42 25° 294° (WNW) 17:48:15 437.505
AUBIESAT-1 27 Feb 17:46:11 17:49:37 25° 294° (WNW) 17:53:10 437.475
PHONESAT 2.4 27 Feb 18:02:52 18:03:35 11° 144° (SE) 18:04:26 2401.200-2431.200
MOZHAYETS 4 27 Feb 18:19:24 18:22:24 17° 293° (WNW) 18:25:13
VERMONT LUNAR 27 Feb 18:20:37 18:23:37 27° 151° (SSE) 18:26:38 437.305
Cubesat XI-IV 27 Feb 18:22:49 18:27:51 40° 262° (W) 18:32:54 437.490
BEESAT 3 27 Feb 18:24:53 18:28:57 62° 303° (WNW) 18:33:04 437.485
AIST 2 27 Feb 18:25:16 18:29:15 41° 116° (ESE) 18:33:18 435.215
YUBILEINY 27 Feb 18:26:52 18:33:43 24° 295° (WNW) 18:40:16 435.215
CUBESAT XI-V 27 Feb 18:30:16 18:34:54 52° 99° (E) 18:39:29 437.345
HO-68 27 Feb 18:32:27 18:36:50 18° 58° (ENE) 18:41:33 435.675
CUTE-I 27 Feb 18:33:07 18:37:57 33° 264° (W) 18:42:44 437.470
AIST 1 27 Feb 18:37:00 18:41:23 60° 81° (E) 18:45:44
BRITE-PL 27 Feb 18:37:36 18:40:56 17° 65° (ENE) 18:44:27 437.365/2234.400
BEESAT 2 27 Feb 18:46:48 18:50:44 42° 306° (NW) 18:54:43 435.950
STRAND 1 27 Feb 18:52:19 18:57:21 51° 100° (E) 19:02:20 437.568
GOMX 1 27 Feb 18:59:35 19:02:56 17° 67° (ENE) 19:06:25 467.674
CANX-2 27 Feb 19:03:17 19:05:11 13° 67° (ENE) 19:07:19 2200.000
PRISM 27 Feb 19:03:50 19:08:01 60° 286° (WNW) 19:12:10 437.425
SEEDS 27 Feb 19:06:38 19:07:25 11° 65° (ENE) 19:08:26 437.485
CUTE 1.7 + AOD 2 27 Feb 19:21:16 19:24:13 19° 69° (ENE) 19:27:16 437.475
PHONESAT 2.4 27 Feb 19:38:04 19:41:34 47° 157° (SSE) 19:45:04 2401.200-2431.200
Oscar 11 27 Feb 19:47:33 19:48:41 11° 65° (ENE) 19:50:03 145.826/435.025
DOVE 4 27 Feb 19:48:49 19:53:27 34° 72° (ENE) 19:58:00 437.250
O/OREOS (USA 219) 27 Feb 19:50:15 19:54:51 68° 67° (ENE) 19:59:24 437.305
VERMONT LUNAR 27 Feb 19:57:50 20:01:21 87° 348° (NNW) 20:04:51 437.305
AIST 2 27 Feb 20:04:46 20:08:03 21° 313° (NW) 20:11:17 435.215
CUBESAT XI-V 27 Feb 20:09:02 20:11:57 16° 294° (WNW) 20:14:42 437.345
DELFI C3 27 Feb 20:10:24 20:12:35 15° 68° (ENE) 20:14:56 145.870
BRITE-PL 27 Feb 20:13:17 20:18:58 70° 259° (W) 20:24:31 437.365/2234.400
COMPASS 1 27 Feb 20:16:14 20:20:17 55° 75° (ENE) 20:24:22 437.405
AAUSAT CUBESAT 2 27 Feb 20:16:23 20:20:21 47° 74° (ENE) 20:24:22 437.432
HO-68 27 Feb 20:16:39 20:23:48 85° 255° (WSW) 20:31:00 435.675
AIST 1 27 Feb 20:17:48 20:18:34 10° 275° (W) 20:19:02
CINEMA 3 27 Feb 20:21:29 20:25:57 38° 72° (ENE) 20:30:18 145.822/145.860
ZACube-1 27 Feb 20:24:04 20:26:24 15° 67° (ENE) 20:28:53 437.345
FUNcube-1 27 Feb 20:24:07 20:26:24 14° 67° (ENE) 20:28:49 145.935
STRAND 1 27 Feb 20:32:34 20:36:12 19° 295° (WNW) 20:39:38 437.568
UWE-3 27 Feb 20:34:30 20:38:01 23° 70° (ENE) 20:41:33 435.000/436.395/437.385
GOMX 1 27 Feb 20:35:15 20:40:40 61° 260° (W) 20:45:54 467.674
CANX-2 27 Feb 20:36:40 20:40:46 50° 261° (W) 20:44:53 2200.000
UKube-1 27 Feb 20:37:41 20:40:47 20° 68° (ENE) 20:44:01 .
SEEDS 27 Feb 20:38:37 20:42:46 64° 259° (W) 20:46:56 437.485
GONETS M04 27 Feb 20:43:08 20:48:17 18° 81° (E) 20:53:58
HUMSAT D 27 Feb 20:53:09 20:55:30 15° 68° (ENE) 20:58:02 437.325/437.525
CUTE 1.7 + AOD 2 27 Feb 20:56:07 20:59:57 33° 264° (W) 21:03:46 437.475
PCSat 27 Feb 21:02:41 21:07:56 55° 114° (ESE) 21:13:15 145.827
CUBEBUG 2 27 Feb 21:03:59 21:08:30 60° 75° (ENE) 21:12:53 437.445
PHONESAT 2.4 27 Feb 21:16:22 21:20:00 69° 352° (N) 21:23:37 2401.200-2431.200
Oscar 11 27 Feb 21:20:07 21:24:23 64° 259° (W) 21:28:40 145.826/435.025
50 SAT 27 Feb 21:23:14 21:26:18 22° 70° (ENE) 21:29:27 437.505
DOVE 4 27 Feb 21:26:48 21:31:14 27° 266° (W) 21:35:28 437.250
AISAT 27 Feb 21:27:25 21:31:18 30° 70° (ENE) 21:35:14 437.250
O/OREOS (USA 219) 27 Feb 21:32:47 21:33:45 10° 261° (W) 21:34:23 437.305
VERMONT LUNAR 27 Feb 21:35:57 21:39:25 63° 3° (N) 21:42:52 437.305
VELOX 1 27 Feb 21:38:16 21:42:22 37° 72° (ENE) 21:46:32 145.980
DX 1 27 Feb 21:38:31 21:42:55 81° 257° (WSW) 21:47:20 434.975-435.025
ESTCUBE 1 27 Feb 21:42:34 21:45:47 20° 68° (ENE) 21:49:09 437.505/2401.250
CUBEBUG 1 27 Feb 21:43:16 21:46:13 18° 67° (ENE) 21:49:20 437.445
DELFI C3 27 Feb 21:43:41 21:47:30 40° 262° (W) 21:51:20 145.870
AAUSAT CUBESAT 2 27 Feb 21:54:30 21:56:22 12° 271° (W) 21:58:00 437.432
COMPASS 1 27 Feb 21:55:22 21:56:27 11° 271° (W) 21:57:15 437.405
FUNcube-1 27 Feb 21:58:06 22:02:24 50° 260° (W) 22:06:38 145.935
ZACube-1 27 Feb 21:58:08 22:02:27 49° 260° (W) 22:06:41 437.345
CINEMA 3 27 Feb 21:59:33 22:03:16 21° 267° (W) 22:06:46 145.822/145.860
UNISAT 6 27 Feb 21:59:41 22:02:44 19° 93° (E) 22:05:55 437.425
POLYITAN 1 27 Feb 22:01:54 22:02:13 10° 88° (E) 22:02:49 437.675
POPSAT HIP 1 27 Feb 22:03:38 22:04:27 11° 89° (E) 22:05:32 437.405
HO-68 27 Feb 22:09:20 22:12:41 13° 273° (W) 22:15:29 435.675
UWE-3 27 Feb 22:10:28 22:14:28 30° 264° (W) 22:18:19 435.000/436.395/437.385
UKube-1 27 Feb 22:12:45 22:16:45 34° 263° (W) 22:20:44 .
TIGRISAT 27 Feb 22:25:41 22:29:39 37° 98° (E) 22:33:39 435.000
NANOSAT C BR1 27 Feb 22:26:07 22:29:15 20° 93° (E) 22:32:28 145.865
HUMSAT D 27 Feb 22:26:58 22:31:00 43° 262° (W) 22:35:00 437.325/437.525
SPROUT 27 Feb 22:29:03 22:31:10 14° 66° (ENE) 22:33:29 437.525
GONETS M04 27 Feb 22:35:30 22:44:12 82° 277° (W) 22:52:57
RS-15 27 Feb 22:36:49 22:45:55 34° 107° (ESE) 22:55:23 29.354- 29.394
ANTELSAT 27 Feb 22:37:18 22:41:29 52° 100° (E) 22:45:44 437.575/2403.000
TISAT 1 27 Feb 22:43:36 22:46:28 18° 68° (ENE) 22:49:28 437.305
CUBEBUG 2 27 Feb 22:43:48 22:45:37 12° 271° (W) 22:47:09 437.445
PCSat 27 Feb 22:47:31 22:51:45 22° 312° (NW) 22:55:54 145.827
PHONESAT 2.4 27 Feb 22:55:00 22:58:38 75° 10° (N) 23:02:15 2401.200-2431.200
QB50P1 27 Feb 22:57:22 23:01:29 48° 99° (E) 23:05:33 145.935-145.965
50 SAT 27 Feb 22:57:52 23:01:15 25° 265° (W) 23:04:34 437.505
QB50P2 27 Feb 23:00:02 23:04:11 52° 100° (E) 23:08:19 145.880/145.840
AISAT 27 Feb 23:04:13 23:07:56 24° 266° (W) 23:11:33 437.250
DANDE 27 Feb 23:06:56 23:10:45 16° 92° (E) 23:14:30 436.750
VERMONT LUNAR 27 Feb 23:13:56 23:17:23 62° 200° (SSW) 23:20:48 437.305
VELOX 1 27 Feb 23:15:52 23:19:07 19° 267° (W) 23:22:14 145.980
DUCHIFAT 1 27 Feb 23:17:55 23:22:10 84° 101° (E) 23:26:22 145.980
CUBEBUG 1 27 Feb 23:18:09 23:22:20 40° 262° (W) 23:26:32 437.445
ESTCUBE 1 27 Feb 23:18:15 23:22:27 37° 263° (W) 23:26:39 437.505/2401.250
BUGSAT 1 27 Feb 23:24:26 23:28:37 74° 101° (E) 23:32:44 437.445
POLYITAN 1 27 Feb 23:34:28 23:38:38 60° 286° (WNW) 23:42:47 437.675
UNISAT 6 27 Feb 23:35:48 23:39:39 33° 288° (WNW) 23:43:29 437.425
POPSAT HIP 1 27 Feb 23:36:39 23:40:49 57° 285° (WNW) 23:44:56 437.405
CUSAT 1 27 Feb 23:52:39 23:59:12 46° 97° (E) 00:04:19 437.405
NANOSAT C BR1 28 Feb 00:01:27 00:05:11 30° 289° (WNW) 00:08:50 145.865
SPROUT 28 Feb 00:02:38 00:06:53 52° 261° (W) 00:11:08 437.525
TIGRISAT 28 Feb 00:03:15 00:06:12 18° 292° (WNW) 00:09:00 435.000
SWISSCUBE 28 Feb 00:05:28 00:09:19 25° 68° (ENE) 00:13:16 437.505
BEESAT 28 Feb 00:14:29 00:18:31 29° 69° (ENE) 00:22:39 436.000
ANTELSAT 28 Feb 00:15:48 00:17:56 13° 294° (WNW) 00:19:51 437.575/2403.000
TISAT 1 28 Feb 00:18:03 00:22:03 37° 262° (W) 00:26:02 437.305
Oscar 19 28 Feb 00:28:28 00:30:41 13° 89° (E) 00:33:12 437.125/150
PHONESAT 2.4 28 Feb 00:33:37 00:37:00 37° 206° (SSW) 00:40:21 2401.200-2431.200
QB50P1 28 Feb 00:34:43 00:37:00 14° 294° (WNW) 00:39:07 145.935-145.965
GONETS M04 28 Feb 00:37:39 00:42:43 16° 300° (WNW) 00:47:15
QB50P2 28 Feb 00:37:41 00:39:42 13° 294° (WNW) 00:41:31 145.880/145.840
ITUPSAT 1 28 Feb 00:39:12 00:43:48 50° 73° (ENE) 00:48:28 437.325
DANDE 28 Feb 00:46:34 00:54:03 77° 279° (W) 00:59:45 436.750
RS-15 28 Feb 00:46:51 00:57:41 64° 307° (NW) 01:08:39 29.354- 29.394
VERMONT LUNAR 28 Feb 00:52:55 00:54:55 14° 214° (SW) 00:56:50 437.305
KKS-1 28 Feb 01:16:07 01:19:36 23° 69° (ENE) 01:23:12 437.445
STARS 28 Feb 01:29:48 01:33:05 21° 68° (ENE) 01:36:28 437.465
SO-50 28 Feb 01:34:28 01:38:11 26° 112° (ESE) 01:42:06 436.795
CUSAT 1 28 Feb 01:36:46 01:42:05 24° 285° (WNW) 01:46:19 437.405
SWISSCUBE 28 Feb 01:42:49 01:47:05 32° 264° (W) 01:51:19 437.505
BEESAT 28 Feb 01:52:15 01:56:21 28° 265° (W) 02:00:24 436.000
ITAMSAT 1 28 Feb 01:57:21 02:02:01 33° 96° (E) 02:06:43 435.822/435.867
Oscar 19 28 Feb 02:05:31 02:10:37 67° 286° (WNW) 02:15:41 437.125/150
ITUPSAT 1 28 Feb 02:19:07 02:22:04 16° 269° (W) 02:24:50 437.325
DANDE 28 Feb 02:36:11 02:37:53 11° 293° (WNW) 02:39:01 436.750
YUBILEINY 28 Feb 02:39:35 02:47:14 33° 70° (ENE) 02:55:04 435.215
BEESAT 3 28 Feb 02:45:24 02:49:27 51° 55° (NE) 02:53:25 437.485
AIST 2 28 Feb 02:48:48 02:52:01 21° 47° (NE) 02:55:16 435.215
Gurwin Techsat 1B 28 Feb 02:51:03 02:56:23 82° 101° (ESE) 03:01:43 435.225
KKS-1 28 Feb 02:52:08 02:56:08 31° 264° (W) 03:00:06 437.445
M-CUBED/EXP-1 PRIME 28 Feb 02:55:19 02:58:00 24° 66° (ENE) 03:00:47 437.505
AUBIESAT-1 28 Feb 02:59:51 03:02:31 24° 66° (ENE) 03:05:19 437.475
RS-15 28 Feb 03:04:42 03:12:57 23° 336° (NNW) 03:21:05 29.354- 29.394
STARS 28 Feb 03:05:19 03:09:23 34° 263° (W) 03:13:24 437.465
BEESAT 2 28 Feb 03:07:29 03:11:40 77° 58° (ENE) 03:15:45 435.950
JAS-2 28 Feb 03:07:46 03:11:47 16° 87° (E) 03:16:24 435.910
HORYU 2 28 Feb 03:10:08 03:14:06 32° 96° (E) 03:18:07 437.375
SO-50 28 Feb 03:14:22 03:18:35 34° 310° (NW) 03:22:57 436.795
AO-7 28 Feb 03:30:51 03:38:01 33° 96° (E) 03:45:19 29.400- 29.500
ITAMSAT 1 28 Feb 03:36:58 03:41:27 29° 292° (WNW) 03:45:48 435.822/435.867
MOZHAYETS 4 28 Feb 03:41:50 03:46:01 38° 72° (ENE) 03:50:16
JUGNU 28 Feb 03:50:37 03:51:42 10° 173° (S) 03:52:50 437.505
BEESAT 3 28 Feb 04:25:05 04:27:09 13° 250° (WSW) 04:29:00 437.485
AIST 2 28 Feb 04:26:48 04:30:48 39° 245° (WSW) 04:34:43 435.215
M-CUBED/EXP-1 PRIME 28 Feb 04:31:00 04:33:04 15° 262° (W) 04:35:02 437.505
Gurwin Techsat 1B 28 Feb 04:33:21 04:35:46 13° 298° (WNW) 04:37:54 435.225
AUBIESAT-1 28 Feb 04:35:27 04:37:31 15° 262° (W) 04:39:30 437.475
YUBILEINY 28 Feb 04:35:58 04:44:28 53° 270° (W) 04:52:52 435.215
HORYU 2 28 Feb 04:47:10 04:50:38 22° 292° (WNW) 04:54:00 437.375
JAS-2 28 Feb 04:50:17 04:57:42 87° 103° (ESE) 05:05:35 435.910
CUTE-I 28 Feb 05:13:28 05:15:32 13° 88° (E) 05:17:57 437.470
MOZHAYETS 4 28 Feb 05:20:09 05:23:26 19° 268° (W) 05:26:36
AO-7 28 Feb 05:23:09 05:31:09 53° 294° (WNW) 05:39:04 29.400- 29.500
RS-15 28 Feb 05:24:05 05:31:05 18° 12° (NNE) 05:38:27 29.354- 29.394
CUBESAT XI-V 28 Feb 05:32:22 05:36:46 43° 73° (ENE) 05:41:15 437.345
SRMSAT 28 Feb 05:34:45 05:36:09 11° 174° (S) 05:37:37 437.500
JUGNU 28 Feb 05:37:55 05:39:51 12° 183° (S) 05:41:45 437.505
PCSat 28 Feb 05:52:03 05:56:57 34° 53° (NE) 06:01:53 145.827
PRISM 28 Feb 05:52:44 05:56:51 82° 76° (ENE) 06:01:02 437.425
STRAND 1 28 Feb 06:06:47 06:11:52 64° 73° (ENE) 06:16:59 437.568
JAS-2 28 Feb 06:37:04 06:42:04 19° 298° (WNW) 06:46:56 435.910
Cubesat XI-IV 28 Feb 06:41:03 06:46:28 89° 299° (WNW) 06:51:50 437.490
CUTE-I 28 Feb 06:50:56 06:56:18 74° 286° (WNW) 07:01:38 437.470
AIST 1 28 Feb 07:05:14 07:09:13 38° 92° (E) 07:13:18
CUBESAT XI-V 28 Feb 07:11:15 07:14:29 18° 269° (W) 07:17:32 437.345
AO-7 28 Feb 07:20:08 07:22:16 11° 313° (NW) 07:23:52 29.400- 29.500
SRMSAT 28 Feb 07:22:39 07:24:27 11° 184° (S) 07:26:13 437.500
PCSat 28 Feb 07:35:32 07:40:21 32° 250° (WSW) 07:45:03 145.827
RS-15 28 Feb 07:37:14 07:47:47 42° 44° (NE) 07:58:56 29.354- 29.394
HO-68 28 Feb 07:47:19 07:52:03 19° 90° (E) 07:57:07 435.675
STRAND 1 28 Feb 07:48:52 07:51:36 14° 271° (W) 07:54:03 437.568
BRITE-PL 28 Feb 08:20:48 08:25:10 41° 97° (E) 08:29:15 437.365/2234.400
CANX-2 28 Feb 08:23:37 08:27:18 29° 95° (E) 08:31:03 2200.000
Cubesat XI-IV 28 Feb 08:23:57 08:25:53 12° 299° (WNW) 08:27:29 437.490
SEEDS 28 Feb 08:25:04 08:28:23 23° 94° (E) 08:31:47 437.485
GOMX 1 28 Feb 08:39:32 08:43:44 42° 97° (E) 08:47:45 467.674
ISS 28 Feb 08:42:14 08:43:58 14° 130° (SE) 08:45:47 145.825
CUTE 1.7 + AOD 2 28 Feb 08:42:23 08:46:26 43° 98° (E) 08:50:30 437.475
AIST 1 28 Feb 08:44:14 08:47:07 17° 289° (WNW) 08:49:51
GONETS M04 28 Feb 08:47:30 08:55:50 47° 75° (ENE) 09:04:14
UNISAT 6 28 Feb 08:58:21 09:01:00 16° 68° (ENE) 09:03:48 437.425
CUBEBUG 2 28 Feb 08:58:40 09:00:15 12° 90° (E) 09:02:05 437.445
Oscar 11 28 Feb 09:09:20 09:12:51 24° 94° (E) 09:16:26 145.826/435.025
NANOSAT C BR1 28 Feb 09:18:41 09:20:55 15° 67° (ENE) 09:23:22 145.865
TIGRISAT 28 Feb 09:23:31 09:27:19 29° 71° (ENE) 09:31:07 435.000
DELFI C3 28 Feb 09:25:06 09:28:37 28° 95° (E) 09:32:12 145.870
DOVE 4 28 Feb 09:27:04 09:31:24 80° 283° (WNW) 09:35:32 437.250
DX 1 28 Feb 09:29:19 09:32:21 19° 93° (E) 09:35:31 434.975-435.025
HO-68 28 Feb 09:33:21 09:40:31 73° 288° (WNW) 09:47:39 435.675
ANTELSAT 28 Feb 09:35:13 09:39:22 40° 73° (ENE) 09:43:28 437.575/2403.000
AAUSAT CUBESAT 2 28 Feb 09:36:16 09:40:27 72° 284° (WNW) 09:44:37 437.432
COMPASS 1 28 Feb 09:36:44 09:40:54 61° 285° (WNW) 09:45:03 437.405
FUNcube-1 28 Feb 09:48:13 09:51:54 31° 96° (E) 09:55:38 145.935
ZACube-1 28 Feb 09:48:27 09:52:10 32° 96° (E) 09:55:55 437.345
QB50P1 28 Feb 09:49:07 09:52:53 31° 71° (ENE) 09:56:42 145.935-145.965
RS-15 28 Feb 09:49:35 10:00:51 62° 246° (WSW) 10:12:31 29.354- 29.394
QB50P2 28 Feb 09:51:53 09:55:45 34° 72° (ENE) 09:59:39 145.880/145.840
CINEMA 3 28 Feb 09:54:51 09:59:03 73° 283° (WNW) 10:03:09 145.822/145.860
CANX-2 28 Feb 09:59:49 10:03:08 22° 290° (WNW) 10:06:22 2200.000
BRITE-PL 28 Feb 10:00:17 10:03:22 17° 294° (WNW) 10:06:11 437.365/2234.400
SEEDS 28 Feb 10:00:36 10:04:13 27° 289° (WNW) 10:07:46 437.485
O/OREOS (USA 219) 28 Feb 10:00:54 10:05:26 79° 291° (WNW) 10:10:03 437.305
UWE-3 28 Feb 10:01:19 10:05:24 57° 100° (E) 10:09:30 435.000/436.395/437.385
UKube-1 28 Feb 10:01:30 10:05:36 41° 99° (E) 10:09:43 .
SO-50 28 Feb 10:06:50 10:10:32 21° 44° (NE) 10:14:19 436.795
DUCHIFAT 1 28 Feb 10:09:02 10:13:11 52° 74° (ENE) 10:17:23 145.980
HUMSAT D 28 Feb 10:12:45 10:16:24 31° 96° (E) 10:20:05 437.325/437.525
BUGSAT 1 28 Feb 10:13:07 10:17:08 43° 73° (ENE) 10:21:14 437.445
ISS 28 Feb 10:16:57 10:20:06 53° 324° (NW) 10:23:17 145.825
GOMX 1 28 Feb 10:18:48 10:21:33 16° 294° (WNW) 10:24:03 467.674
CUTE 1.7 + AOD 2 28 Feb 10:19:30 10:22:04 15° 293° (WNW) 10:24:29 437.475
POLYITAN 1 28 Feb 10:25:58 10:30:16 85° 77° (ENE) 10:34:36 437.675
POPSAT HIP 1 28 Feb 10:27:51 10:32:10 88° 77° (ENE) 10:36:29 437.405
UNISAT 6 28 Feb 10:33:15 10:37:32 44° 262° (W) 10:41:42 437.425
CUBEBUG 2 28 Feb 10:33:20 10:37:20 47° 286° (WNW) 10:41:20 437.445
CUSAT 1 28 Feb 10:36:29 10:36:41 10° 70° (ENE) 10:37:01 437.405
50 SAT 28 Feb 10:37:10 10:40:55 41° 98° (E) 10:44:41 437.505
GONETS M04 28 Feb 10:44:44 10:52:31 36° 273° (W) 11:00:07
Oscar 11 28 Feb 10:45:21 10:49:01 27° 289° (WNW) 10:52:36 145.826/435.025
NANOSAT C BR1 28 Feb 10:52:18 10:56:27 47° 261° (W) 11:00:36 145.865
AISAT 28 Feb 10:55:34 11:00:01 72° 102° (ESE) 11:04:26 437.250
TIGRISAT 28 Feb 11:00:31 11:04:06 23° 266° (W) 11:07:33 435.000
DELFI C3 28 Feb 11:00:36 11:03:42 21° 291° (WNW) 11:06:44 145.870
DX 1 28 Feb 11:04:45 11:08:45 35° 289° (WNW) 11:12:42 434.975-435.025
VELOX 1 28 Feb 11:06:22 11:10:51 88° 282° (WNW) 11:15:16 145.980
CUBEBUG 1 28 Feb 11:08:25 11:12:36 40° 98° (E) 11:16:44 437.445
ESTCUBE 1 28 Feb 11:12:03 11:16:29 49° 99° (E) 11:20:54 437.505/2401.250
ANTELSAT 28 Feb 11:13:26 11:16:23 17° 268° (W) 11:19:06 437.575/2403.000
HO-68 28 Feb 11:23:48 11:27:11 13° 305° (NW) 11:30:10 435.675
FUNcube-1 28 Feb 11:25:04 11:28:06 19° 291° (WNW) 11:31:01 145.935
ZACube-1 28 Feb 11:25:23 11:28:23 19° 291° (WNW) 11:31:16 437.345
QB50P1 28 Feb 11:25:33 11:28:50 21° 267° (W) 11:32:01 145.935-145.965
QB50P2 28 Feb 11:28:39 11:31:47 19° 267° (W) 11:34:47 145.880/145.840
DANDE 28 Feb 11:32:15 11:34:58 61° 80° (E) 11:37:32 436.750
UKube-1 28 Feb 11:38:36 11:41:29 17° 293° (WNW) 11:44:12 .
UWE-3 28 Feb 11:40:08 11:41:33 11° 294° (WNW) 11:42:44 435.000/436.395/437.385
Oscar 19 28 Feb 11:43:48 11:47:10 18° 65° (ENE) 11:50:42 437.125/150
SO-50 28 Feb 11:46:37 11:51:28 55° 243° (WSW) 11:56:15 436.795
DUCHIFAT 1 28 Feb 11:47:29 11:49:25 12° 270° (W) 11:51:07 145.980
HUMSAT D 28 Feb 11:49:02 11:52:01 19° 291° (WNW) 11:54:54 437.325/437.525
BUGSAT 1 28 Feb 11:50:21 11:52:54 15° 269° (W) 11:55:17 437.445
SPROUT 28 Feb 11:51:05 11:54:49 29° 96° (E) 11:58:34 437.525
ISS 28 Feb 11:55:36 11:57:09 13° 343° (NNW) 11:58:39 145.825
TISAT 1 28 Feb 12:04:07 12:08:02 36° 97° (E) 12:11:56 437.305
RS-15 28 Feb 12:08:46 12:11:34 11° 262° (W) 12:12:58 29.354- 29.394
50 SAT 28 Feb 12:13:32 12:15:39 14° 292° (WNW) 12:17:36 437.505
CUSAT 1 28 Feb 12:18:15 12:19:33 13° 268° (W) 12:20:45 437.405
Gurwin Techsat 1B 28 Feb 12:34:09 12:36:42 14° 63° (ENE) 12:39:32 435.225
AISAT 28 Feb 12:34:56 12:36:06 11° 296° (WNW) 12:37:01 437.250
ITUPSAT 1 28 Feb 12:42:43 12:45:17 15° 90° (E) 12:48:04 437.325
CUBEBUG 1 28 Feb 12:45:40 12:48:41 18° 293° (WNW) 12:51:32 437.445
ESTCUBE 1 28 Feb 12:50:12 12:53:00 16° 294° (WNW) 12:55:37 437.505/2401.250
ITAMSAT 1 28 Feb 13:13:56 13:18:50 44° 71° (ENE) 13:23:49 435.822/435.867
Oscar 19 28 Feb 13:21:09 13:26:10 52° 260° (W) 13:31:11 437.125/150
SPROUT 28 Feb 13:27:24 13:30:48 22° 291° (WNW) 13:34:05 437.525
TISAT 1 28 Feb 13:40:41 13:43:37 18° 292° (WNW) 13:46:23 437.305
SWISSCUBE 28 Feb 13:43:52 13:48:42 73° 102° (ESE) 13:53:30 437.505
BEESAT 28 Feb 13:52:58 13:57:49 83° 105° (ESE) 14:02:36 436.000
